Location: Red Bud (historical)
(37.7759°N, 88.4053°W)
Time: 23:43:26
(UTC+00:00)

ERS-2 - Pass Details

Date: 29 October 2020
Orbit: 493 x 497 km, 98.6° (Epoch: 28 November)

Event Time Altitude Azimuth Distance (km) Brightness Sun altitude
Rises 23:31:54 0° 10° (N) 2,582 5.5 -7.4°
Reaches altitude 10° 23:33:59 10° 8° (N) 1,696 4.6 -7.8°
Maximum altitude 23:37:36 69° 286° (WNW) 533 2.5 -8.5°
Drops below altitude 10° 23:41:12 10° 202° (SSW) 1,685 5.3 -9.2°
Sets 23:43:16 0° 200° (SSW) 2,563 6.2 -9.6°
